Meteo Giornale » Osservazioni meteo Italia » Bari-Palese Macchie

ore: 00:50 - Osservazioni Meteo Bari-Palese Macchie
Lat. 41° 8' N Lon. 16° 47' E Alt. 34 metri s.l.m.

foschia Europe/Rome

14 °C

Foschia

Temp. 24 Ore

12 °C

21 °C

Ovest/Sud-Ovest

7.4 Km/h

Dew point 14 °C

Umidità 100 %

Visibilità  5 Km

Il sole sorge alle ore 07:09

Il sole tramonta alle ore 18:05

Data e Ora Cielo e Fenomeni T °C DP °C Um. % Pres. hPa Vis. km Vento km/h
Oggi h: 00:50 foschia Foschia 14 14 100 1018 5 O/SO 7.4
Oggi h: 00:20 foschia Foschia 14 14 100 1018 5 SO 7.4
Ieri h: 23:20 foschia Foschia 15 15 100 1018 5 O/SO 7.4
Ieri h: 22:50 sereno Sereno 16 16 100 1018 7 O/SO 7.4
Ieri h: 22:20 sereno Sereno 16 16 100 1018 6 N 5.5
Ieri h: 21:50 poco_nuvoloso Poco Nuvoloso 17 17 100 1018 8 SO 9.3
Ieri h: 21:20 poco_nuvoloso Poco Nuvoloso 18 18 100 1017 8 N 3.7
Ieri h: 20:50 poco_nuvoloso Poco Nuvoloso 19 18 93 1017 8 N 3.7
Ieri h: 20:20 poco_nuvoloso Poco Nuvoloso 18 18 100 1017 8 N 1.8
Ieri h: 19:50 poco_nuvoloso Poco Nuvoloso 18 18 100 1017 6 N 3.7
Ieri h: 19:20 poco_nuvoloso Poco Nuvoloso 18 18 100 1017 6 N 3.7
Ieri h: 18:50 poco_nuvoloso Poco Nuvoloso 19 18 93 1017 6 E/SE 7.4
Ieri h: 18:20 foschia Foschia 19 17 88 1017 5 E 9.3
Ieri h: 17:50 poco_nuvoloso Poco Nuvoloso 19 18 93 1017 6 E 9.3
Ieri h: 17:20 poco_nuvoloso Poco Nuvoloso 20 17 82 1017 6 E 11.1
Ieri h: 16:50 poco_nuvoloso Poco Nuvoloso 20 17 82 1017 6 E 14.8
Ieri h: 16:20 poco_nuvoloso Poco Nuvoloso 20 17 82 1017 8 E 16.7
Ieri h: 15:50 poco_nuvoloso Poco Nuvoloso 20 17 82 1017 7 E 18.5
Ieri h: 15:20 sereno Sereno 20 17 82 1017 7 E 16.7
Ieri h: 14:50 sereno Sereno 21 16 73 1017 6 E 16.7
Ieri h: 14:20 foschia Foschia 21 16 73 1017 5 E/NE 14.8
Ieri h: 13:50 foschia Foschia 21 16 73 1018 5 E/NE 11.1
Ieri h: 13:20 foschia Foschia 20 16 77 1018 5 E/NE 11.1
Ieri h: 12:50 foschia Foschia 21 17 77 1018 5 E/NE 11.1
Ieri h: 12:20 foschia Foschia 21 16 73 1018 5 E 9.3
Ieri h: 11:50 foschia Foschia 20 16 77 1018 4 E 11.1
Ieri h: 11:20 foschia Foschia 21 15 68 1018 4 N 5.5
Ieri h: 10:50 foschia Foschia 20 16 77 1019 4 N 5.5
Ieri h: 10:20 foschia Foschia 20 16 77 1019 4 N 3.7
Ieri h: 09:50 foschia Foschia 18 16 88 1018 3 N 5.5
Ieri h: 09:20 foschia Foschia 17 17 100 1018 3 SO 7.4
Ieri h: 08:50 foschia Foschia 16 16 100 1018 2 N 5.5
Ieri h: 08:20 foschia Foschia 15 15 100 1018 2 O/SO 7.4
Ieri h: 07:50 foschia Foschia 15 15 100 1018 2 SO 9.3
Ieri h: 07:20 foschia Foschia 15 15 100 1018 2 N 5.5
Ieri h: 06:50 foschia Foschia 16 16 100 1018 5 SO 7.4
Ieri h: 06:20 foschia Foschia 16 16 100 1018 4 N 3.7
Ieri h: 05:50 foschia Foschia 16 16 100 1018 4 N 3.7
Ieri h: 05:20 foschia Foschia 16 16 100 1018 4 N 5.5
Ieri h: 04:50 foschia Foschia 16 16 100 1018 5 N 5.5
Ieri h: 04:20 foschia Foschia 16 16 100 1018 5 N 3.7
Ieri h: 03:50 foschia Foschia 15 15 100 1018 5 N 5.5
Ieri h: 03:20 foschia Foschia 15 15 100 1018 5 O/SO 7.4
Ieri h: 02:50 foschia Foschia 14 14 100 1018 5 O/SO 7.4
Ieri h: 02:20 foschia Foschia 13 13 100 1018 5 O/SO 7.4
Ieri h: 01:50 foschia Foschia 12 12 100 1018 5 SO 9.3